Time,TemperatureF,DewpointF,PressureIn,WindDirection,WindDirectionDegrees,WindSpeedMPH,WindSpeedGustMPH,Humidity,HourlyPrecipIn,Conditions,Clouds,dailyrainin,SoftwareType,DateUTC
2013-01-18 00:04:00,17.8,11.8,30.35,NNE,13,0.0,1.0,77,0.00,,,0.00,meteohub,2013-01-18 06:04:00,
2013-01-18 00:09:00,17.8,11.8,30.35,NNE,13,0.0,1.0,77,0.00,,,0.00,meteohub,2013-01-18 06:09:00,
2013-01-18 00:14:00,17.8,11.8,30.35,NNE,13,0.0,1.0,77,0.00,,,0.00,meteohub,2013-01-18 06:14:00,
2013-01-18 00:19:00,18.0,12.0,30.34,NNE,13,0.0,1.0,77,0.00,,,0.00,meteohub,2013-01-18 06:19:00,
2013-01-18 00:24:00,18.0,12.2,30.34,NNE,13,0.0,1.0,78,0.00,,,0.00,meteohub,2013-01-18 06:24:00,
2013-01-18 00:29:00,18.0,12.2,30.33,North,0,0.0,0.0,78,0.00,,,0.00,meteohub,2013-01-18 06:29:00,
2013-01-18 00:34:00,18.0,12.2,30.33,North,0,0.0,0.0,78,0.00,,,0.00,meteohub,2013-01-18 06:34:00,
2013-01-18 00:39:00,18.1,12.4,30.33,North,0,0.0,0.0,78,0.00,,,0.00,meteohub,2013-01-18 06:39:00,
2013-01-18 00:45:00,18.1,12.4,30.33,NNE,18,0.0,0.0,78,0.00,,,0.00,meteohub,2013-01-18 06:45:00,
2013-01-18 00:50:00,18.1,12.4,30.33,NNE,18,0.0,0.0,78,0.00,,,0.00,meteohub,2013-01-18 06:50:00,
2013-01-18 00:55:00,18.1,12.4,30.31,NNE,18,0.0,0.0,78,0.00,,,0.00,meteohub,2013-01-18 06:55:00,
2013-01-18 01:00:00,18.1,12.4,30.32,NNE,18,0.0,0.0,78,0.00,,,0.00,meteohub,2013-01-18 07:00:00,
2013-01-18 01:05:00,18.1,12.4,30.31,NNE,18,0.0,0.0,78,0.00,,,0.00,meteohub,2013-01-18 07:05:00,
2013-01-18 01:10:00,18.3,12.9,30.30,NNE,18,0.0,0.0,79,0.00,,,0.00,meteohub,2013-01-18 07:10:00,
2013-01-18 01:15:00,18.3,12.9,30.31,North,0,0.0,0.0,79,0.00,,,0.00,meteohub,2013-01-18 07:15:00,
2013-01-18 01:20:00,18.3,12.9,30.30,North,0,0.0,0.0,79,0.00,,,0.00,meteohub,2013-01-18 07:20:00,
2013-01-18 01:25:00,18.3,12.9,30.30,North,0,0.0,0.0,79,0.00,,,0.00,meteohub,2013-01-18 07:25:00,
2013-01-18 01:31:00,18.3,12.9,30.30,North,0,0.0,0.0,79,0.00,,,0.00,meteohub,2013-01-18 07:31:00,
2013-01-18 01:36:00,18.3,12.9,30.29,North,0,0.0,3.0,79,0.00,,,0.00,meteohub,2013-01-18 07:36:00,
2013-01-18 01:41:00,18.3,13.3,30.28,North,0,0.0,3.0,80,0.00,,,0.00,meteohub,2013-01-18 07:41:00,
2013-01-18 01:46:00,18.5,13.3,30.28,North,355,0.0,3.0,80,0.00,,,0.00,meteohub,2013-01-18 07:46:00,
2013-01-18 01:51:00,18.5,13.3,30.27,North,355,0.0,2.0,80,0.00,,,0.00,meteohub,2013-01-18 07:51:00,
2013-01-18 01:56:00,18.5,13.3,30.27,WSW,242,0.0,2.0,80,0.00,,,0.00,meteohub,2013-01-18 07:56:00,
2013-01-18 02:01:00,18.7,13.5,30.27,SSW,213,0.0,3.0,80,0.00,,,0.00,meteohub,2013-01-18 08:01:00,
2013-01-18 02:06:00,18.7,13.5,30.27,SSW,213,0.0,4.0,80,0.00,,,0.00,meteohub,2013-01-18 08:06:00,
2013-01-18 02:11:00,18.7,13.5,30.26,SSW,213,0.0,4.0,80,0.00,,,0.00,meteohub,2013-01-18 08:11:00,
2013-01-18 02:16:00,18.7,13.5,30.27,SSW,213,0.0,2.0,80,0.00,,,0.00,meteohub,2013-01-18 08:16:00,
2013-01-18 02:21:00,18.9,13.6,30.27,SSW,213,0.0,2.0,80,0.00,,,0.00,meteohub,2013-01-18 08:21:00,
2013-01-18 02:26:00,18.9,13.6,30.25,SSW,213,0.0,2.0,80,0.00,,,0.00,meteohub,2013-01-18 08:26:00,
2013-01-18 02:32:00,18.9,13.6,30.25,SSW,213,0.0,2.0,80,0.00,,,0.00,meteohub,2013-01-18 08:32:00,
2013-01-18 02:37:00,18.9,13.6,30.24,SSW,213,0.0,2.0,80,0.00,,,0.00,meteohub,2013-01-18 08:37:00,
2013-01-18 02:42:00,19.0,13.8,30.24,SSW,212,0.0,2.0,80,0.00,,,0.00,meteohub,2013-01-18 08:42:00,
2013-01-18 02:47:00,19.0,13.8,30.24,SSW,213,2.0,2.0,80,0.00,,,0.00,meteohub,2013-01-18 08:47:00,
2013-01-18 02:52:00,19.0,13.8,30.23,SSW,213,0.0,3.0,80,0.00,,,0.00,meteohub,2013-01-18 08:52:00,
2013-01-18 02:57:00,19.0,14.2,30.22,SSW,209,3.0,3.0,81,0.00,,,0.00,meteohub,2013-01-18 08:57:00,
2013-01-18 03:02:00,19.2,14.4,30.22,SSW,209,0.0,4.0,81,0.00,,,0.00,meteohub,2013-01-18 09:02:00,
2013-01-18 03:07:00,19.2,14.4,30.21,SW,232,2.0,4.0,81,0.00,,,0.00,meteohub,2013-01-18 09:07:00,
2013-01-18 03:12:00,19.2,14.4,30.21,SW,232,0.0,3.0,81,0.00,,,0.00,meteohub,2013-01-18 09:12:00,
2013-01-18 03:17:00,19.4,14.5,30.20,SW,230,0.0,5.0,81,0.00,,,0.00,meteohub,2013-01-18 09:17:00,
2013-01-18 03:22:00,19.6,14.4,30.20,SW,230,1.0,5.0,80,0.00,,,0.00,meteohub,2013-01-18 09:22:00,
2013-01-18 03:27:00,19.6,14.4,30.19,SW,219,1.0,3.0,80,0.00,,,0.00,meteohub,2013-01-18 09:27:00,
2013-01-18 03:32:00,19.8,14.5,30.19,South,185,0.0,3.0,80,0.00,,,0.00,meteohub,2013-01-18 09:32:00,
2013-01-18 03:37:00,19.8,14.5,30.19,South,184,0.0,5.0,80,0.00,,,0.00,meteohub,2013-01-18 09:37:00,
2013-01-18 03:42:00,19.8,14.5,30.19,SW,221,2.0,5.0,80,0.00,,,0.00,meteohub,2013-01-18 09:42:00,
2013-01-18 03:47:00,19.8,14.9,30.19,SW,221,0.0,5.0,81,0.00,,,0.00,meteohub,2013-01-18 09:47:00,
2013-01-18 03:53:00,19.9,15.1,30.18,WSW,248,3.0,3.0,81,0.00,,,0.00,meteohub,2013-01-18 09:53:00,
2013-01-18 03:58:00,20.1,15.3,30.17,South,188,0.0,5.0,81,0.00,,,0.00,meteohub,2013-01-18 09:58:00,
2013-01-18 04:03:00,20.1,15.3,30.16,SW,232,4.0,5.0,81,0.00,,,0.00,meteohub,2013-01-18 10:03:00,
2013-01-18 04:08:00,20.1,15.3,30.15,SW,230,0.0,5.0,81,0.00,,,0.00,meteohub,2013-01-18 10:08:00,
2013-01-18 04:13:00,20.1,15.3,30.15,SSW,202,3.0,5.0,81,0.00,,,0.00,meteohub,2013-01-18 10:13:00,
2013-01-18 04:18:00,20.1,15.3,30.14,SSW,202,0.0,5.0,81,0.00,,,0.00,meteohub,2013-01-18 10:18:00,
2013-01-18 04:23:00,20.3,15.4,30.14,SW,234,0.0,4.0,81,0.00,,,0.00,meteohub,2013-01-18 10:23:00,
2013-01-18 04:28:00,20.5,15.6,30.13,South,185,2.0,4.0,81,0.00,,,0.00,meteohub,2013-01-18 10:28:00,
2013-01-18 04:33:00,20.7,15.4,30.13,SSW,203,1.0,7.0,80,0.00,,,0.00,meteohub,2013-01-18 10:33:00,
2013-01-18 04:38:00,20.7,15.4,30.13,SW,234,3.0,7.0,80,0.00,,,0.00,meteohub,2013-01-18 10:38:00,
2013-01-18 04:43:00,20.7,15.4,30.12,WSW,237,1.0,7.0,80,0.00,,,0.00,meteohub,2013-01-18 10:43:00,
2013-01-18 04:49:00,20.8,15.6,30.12,WSW,252,0.0,6.0,80,0.00,,,0.00,meteohub,2013-01-18 10:49:00,
2013-01-18 04:54:00,20.8,15.6,30.12,WSW,249,2.0,7.0,80,0.00,,,0.00,meteohub,2013-01-18 10:54:00,
2013-01-18 04:59:00,20.8,15.6,30.12,WSW,252,4.0,7.0,80,0.00,,,0.00,meteohub,2013-01-18 10:59:00,
2013-01-18 05:04:00,20.8,15.6,30.11,WSW,251,0.0,7.0,80,0.00,,,0.00,meteohub,2013-01-18 11:04:00,
2013-01-18 05:09:00,20.8,15.4,30.11,WSW,250,0.0,6.0,79,0.00,,,0.00,meteohub,2013-01-18 11:09:00,
2013-01-18 05:14:00,20.8,15.4,30.10,WSW,251,0.0,4.0,79,0.00,,,0.00,meteohub,2013-01-18 11:14:00,
2013-01-18 05:19:00,21.0,15.8,30.09,WSW,251,0.0,3.0,80,0.00,,,0.00,meteohub,2013-01-18 11:19:00,
2013-01-18 05:24:00,21.0,15.8,30.09,WSW,251,0.0,3.0,80,0.00,,,0.00,meteohub,2013-01-18 11:24:00,
2013-01-18 05:29:00,21.4,16.2,30.08,West,265,0.0,5.0,80,0.00,,,0.00,meteohub,2013-01-18 11:29:00,
2013-01-18 05:34:00,21.6,16.0,30.08,SW,224,0.0,5.0,79,0.00,,,0.00,meteohub,2013-01-18 11:34:00,
2013-01-18 05:39:00,21.6,16.0,30.07,SW,236,0.0,5.0,79,0.00,,,0.00,meteohub,2013-01-18 11:39:00,
2013-01-18 05:44:00,21.7,16.2,30.06,West,261,2.0,5.0,79,0.00,,,0.00,meteohub,2013-01-18 11:44:00,
2013-01-18 05:50:00,21.9,16.3,30.06,WSW,256,1.0,7.0,79,0.00,,,0.00,meteohub,2013-01-18 11:50:00,
2013-01-18 05:55:00,22.1,16.5,30.05,SSE,163,3.0,7.0,79,0.00,,,0.00,meteohub,2013-01-18 11:55:00,
2013-01-18 06:00:00,22.5,16.9,30.04,WSW,240,0.0,7.0,79,0.00,,,0.00,meteohub,2013-01-18 12:00:00,
2013-01-18 06:05:00,22.5,16.9,30.04,WSW,238,1.0,5.0,79,0.00,,,0.00,meteohub,2013-01-18 12:05:00,
2013-01-18 06:10:00,22.6,17.1,30.04,WSW,247,3.0,5.0,79,0.00,,,0.00,meteohub,2013-01-18 12:10:00,
2013-01-18 06:15:00,22.8,17.2,30.04,WSW,248,0.0,8.0,79,0.00,,,0.00,meteohub,2013-01-18 12:15:00,
2013-01-18 06:20:00,23.0,17.4,30.04,WSW,248,0.0,8.0,79,0.00,,,0.00,meteohub,2013-01-18 12:20:00,
2013-01-18 06:25:00,23.2,18.0,30.03,WSW,248,2.0,4.0,80,0.00,,,0.00,meteohub,2013-01-18 12:25:00,
2013-01-18 06:30:00,23.4,18.1,30.02,WSW,257,2.0,3.0,80,0.00,,,0.00,meteohub,2013-01-18 12:30:00,
2013-01-18 06:35:00,23.5,18.3,30.02,WSW,256,0.0,3.0,80,0.00,,,0.00,meteohub,2013-01-18 12:35:00,
2013-01-18 06:40:00,23.5,18.3,30.01,WSW,256,0.0,3.0,80,0.00,,,0.00,meteohub,2013-01-18 12:40:00,
2013-01-18 06:45:00,23.7,18.5,30.01,WSW,256,0.0,3.0,80,0.00,,,0.00,meteohub,2013-01-18 12:45:00,
2013-01-18 06:50:00,23.9,18.9,30.00,WSW,254,0.0,3.0,81,0.00,,,0.00,meteohub,2013-01-18 12:50:00,
2013-01-18 06:56:00,24.1,19.0,30.00,WSW,255,0.0,3.0,81,0.00,,,0.00,meteohub,2013-01-18 12:56:00,
2013-01-18 07:01:00,24.1,19.0,29.99,WSW,255,0.0,2.0,81,0.00,,,0.00,meteohub,2013-01-18 13:01:00,
2013-01-18 07:06:00,24.3,19.2,29.98,WSW,254,0.0,2.0,81,0.00,,,0.00,meteohub,2013-01-18 13:06:00,
2013-01-18 07:11:00,24.4,19.4,29.98,WSW,255,0.0,2.0,81,0.00,,,0.00,meteohub,2013-01-18 13:11:00,
2013-01-18 07:16:00,24.6,19.9,29.97,WSW,255,2.0,3.0,82,0.00,,,0.00,meteohub,2013-01-18 13:16:00,
2013-01-18 07:21:00,24.6,19.9,29.96,WSW,255,0.0,3.0,82,0.00,,,0.00,meteohub,2013-01-18 13:21:00,
2013-01-18 07:26:00,25.0,20.3,29.96,WSW,254,0.0,3.0,82,0.00,,,0.00,meteohub,2013-01-18 13:26:00,
2013-01-18 07:31:00,25.0,20.3,29.96,WSW,254,0.0,3.0,82,0.00,,,0.00,meteohub,2013-01-18 13:31:00,
2013-01-18 07:36:00,25.2,20.5,29.96,WSW,254,0.0,4.0,82,0.00,,,0.00,meteohub,2013-01-18 13:36:00,
2013-01-18 07:41:00,25.5,21.0,29.95,WSW,255,3.0,4.0,83,0.00,,,0.00,meteohub,2013-01-18 13:41:00,
2013-01-18 07:46:00,25.7,21.2,29.95,WSW,255,0.0,4.0,83,0.00,,,0.00,meteohub,2013-01-18 13:46:00,
2013-01-18 07:52:00,25.9,21.4,29.95,WNW,286,0.0,3.0,83,0.00,,,0.00,meteohub,2013-01-18 13:52:00,
2013-01-18 07:57:00,26.1,21.6,29.95,WNW,286,0.0,4.0,83,0.00,,,0.00,meteohub,2013-01-18 13:57:00,
2013-01-18 08:02:00,26.2,21.7,29.94,WNW,286,0.0,4.0,83,0.00,,,0.00,meteohub,2013-01-18 14:02:00,
2013-01-18 08:07:00,26.4,21.9,29.94,WNW,285,2.0,4.0,83,0.00,,,0.00,meteohub,2013-01-18 14:07:00,
2013-01-18 08:12:00,26.6,22.1,29.94,WNW,286,0.0,2.0,83,0.00,,,0.00,meteohub,2013-01-18 14:12:00,
2013-01-18 08:17:00,26.8,22.6,29.94,West,279,0.0,2.0,84,0.00,,,0.00,meteohub,2013-01-18 14:17:00,
2013-01-18 08:22:00,27.0,22.8,29.94,WNW,290,1.0,4.0,84,0.00,,,0.00,meteohub,2013-01-18 14:22:00,
2013-01-18 08:27:00,27.7,23.5,29.94,WNW,287,0.0,11.0,84,0.00,,,0.00,meteohub,2013-01-18 14:27:00,
2013-01-18 08:32:00,28.0,24.1,29.93,WNW,288,2.0,11.0,85,0.00,,,0.00,meteohub,2013-01-18 14:32:00,
2013-01-18 08:37:00,28.4,24.4,29.93,WNW,286,0.0,11.0,85,0.00,,,0.00,meteohub,2013-01-18 14:37:00,
2013-01-18 08:42:00,28.9,25.0,29.92,WNW,283,0.0,5.0,85,0.00,,,0.00,meteohub,2013-01-18 14:42:00,
2013-01-18 08:47:00,29.1,25.2,29.92,WNW,283,1.0,5.0,85,0.00,,,0.00,meteohub,2013-01-18 14:47:00,
2013-01-18 08:52:00,29.5,25.5,29.91,WNW,284,0.0,3.0,85,0.00,,,0.00,meteohub,2013-01-18 14:52:00,
2013-01-18 08:57:00,29.7,25.7,29.91,West,267,3.0,3.0,85,0.00,,,0.00,meteohub,2013-01-18 14:57:00,
2013-01-18 09:02:00,30.0,26.1,29.91,NW,317,0.0,4.0,85,0.00,,,0.00,meteohub,2013-01-18 15:02:00,
2013-01-18 09:07:00,30.4,26.4,29.90,NW,315,0.0,5.0,85,0.00,,,0.00,meteohub,2013-01-18 15:07:00,
2013-01-18 09:12:00,30.6,26.6,29.90,NW,314,0.0,5.0,85,0.00,,,0.00,meteohub,2013-01-18 15:12:00,
2013-01-18 09:17:00,30.9,27.0,29.89,WNW,298,0.0,5.0,85,0.00,,,0.00,meteohub,2013-01-18 15:17:00,
2013-01-18 09:22:00,31.6,27.7,29.90,West,265,1.0,5.0,85,0.00,,,0.00,meteohub,2013-01-18 15:22:00,
2013-01-18 09:27:00,32.9,28.6,29.89,WNW,300,2.0,9.0,84,0.00,,,0.00,meteohub,2013-01-18 15:27:00,
2013-01-18 09:32:00,33.8,29.1,29.88,West,280,1.0,11.0,83,0.00,,,0.00,meteohub,2013-01-18 15:32:00,
2013-01-18 09:37:00,34.5,29.3,29.88,NW,309,2.0,11.0,81,0.00,,,0.00,meteohub,2013-01-18 15:37:00,
2013-01-18 09:42:00,35.2,29.3,29.88,WNW,287,3.0,11.0,79,0.00,,,0.00,meteohub,2013-01-18 15:42:00,
2013-01-18 09:47:00,36.0,29.5,29.88,West,265,5.0,9.0,77,0.00,,,0.00,meteohub,2013-01-18 15:47:00,
2013-01-18 09:52:00,36.3,29.5,29.88,West,266,2.0,10.0,76,0.00,,,0.00,meteohub,2013-01-18 15:52:00,
2013-01-18 09:57:00,36.9,29.7,29.88,NW,314,3.0,10.0,75,0.00,,,0.00,meteohub,2013-01-18 15:57:00,
2013-01-18 10:02:00,37.0,29.8,29.88,NW,310,4.0,10.0,75,0.00,,,0.00,meteohub,2013-01-18 16:02:00,
2013-01-18 10:07:00,36.9,29.3,29.88,NW,321,3.0,12.0,74,0.00,,,0.00,meteohub,2013-01-18 16:07:00,
2013-01-18 10:12:00,36.7,29.5,29.87,NW,325,3.0,12.0,75,0.00,,,0.00,meteohub,2013-01-18 16:12:00,
2013-01-18 10:17:00,37.0,29.8,29.87,West,275,0.0,9.0,75,0.00,,,0.00,meteohub,2013-01-18 16:17:00,
2013-01-18 10:23:00,37.6,30.0,29.87,West,276,1.0,9.0,74,0.00,,,0.00,meteohub,2013-01-18 16:23:00,
2013-01-18 10:28:00,37.9,30.0,29.87,West,271,4.0,11.0,73,0.00,,,0.00,meteohub,2013-01-18 16:28:00,
2013-01-18 10:33:00,38.1,29.8,29.87,WSW,254,1.0,11.0,72,0.00,,,0.00,meteohub,2013-01-18 16:33:00,
2013-01-18 10:38:00,38.7,30.0,29.86,West,281,3.0,11.0,71,0.00,,,0.00,meteohub,2013-01-18 16:38:00,
2013-01-18 10:43:00,38.7,30.0,29.86,WNW,287,2.0,11.0,71,0.00,,,0.00,meteohub,2013-01-18 16:43:00,
2013-01-18 10:48:00,39.0,30.4,29.86,WNW,292,2.0,11.0,71,0.00,,,0.00,meteohub,2013-01-18 16:48:00,
2013-01-18 10:53:00,39.4,30.4,29.86,NW,318,0.0,11.0,70,0.00,,,0.00,meteohub,2013-01-18 16:53:00,
2013-01-18 10:58:00,39.6,30.6,29.85,NNE,32,0.0,8.0,70,0.00,,,0.00,meteohub,2013-01-18 16:58:00,
2013-01-18 11:03:00,39.9,30.6,29.85,ENE,67,0.0,7.0,69,0.00,,,0.00,meteohub,2013-01-18 17:03:00,
2013-01-18 11:09:00,39.9,30.6,29.85,NE,35,0.0,13.0,69,0.00,,,0.00,meteohub,2013-01-18 17:09:00,
2013-01-18 11:14:00,39.7,30.4,29.85,West,273,0.0,13.0,69,0.00,,,0.00,meteohub,2013-01-18 17:14:00,
2013-01-18 11:19:00,39.7,30.4,29.83,West,261,4.0,13.0,69,0.00,,,0.00,meteohub,2013-01-18 17:19:00,
2013-01-18 11:24:00,39.7,30.4,29.83,NNW,338,2.0,12.0,69,0.00,,,0.00,meteohub,2013-01-18 17:24:00,
2013-01-18 11:29:00,39.6,30.2,29.83,West,277,6.0,14.0,69,0.00,,,0.00,meteohub,2013-01-18 17:29:00,
2013-01-18 11:34:00,39.7,30.4,29.82,NW,325,5.0,14.0,69,0.00,,,0.00,meteohub,2013-01-18 17:34:00,
2013-01-18 11:39:00,39.7,30.4,29.81,NE,37,2.0,14.0,69,0.00,,,0.00,meteohub,2013-01-18 17:39:00,
2013-01-18 11:45:00,40.5,30.7,29.81,North,355,1.0,13.0,68,0.00,,,0.00,meteohub,2013-01-18 17:45:00,
2013-01-18 11:50:00,40.6,30.9,29.80,NNW,341,0.0,10.0,68,0.00,,,0.00,meteohub,2013-01-18 17:50:00,
2013-01-18 11:55:00,41.0,32.4,29.80,NW,307,0.0,10.0,71,0.00,,,0.00,meteohub,2013-01-18 17:55:00,
2013-01-18 12:00:00,41.2,31.1,29.81,NW,311,0.0,5.0,67,0.00,,,0.00,meteohub,2013-01-18 18:00:00,
2013-01-18 12:05:00,41.0,30.9,29.80,NNW,331,3.0,10.0,67,0.00,,,0.00,meteohub,2013-01-18 18:05:00,
2013-01-18 12:10:00,41.0,30.9,29.80,WNW,290,4.0,10.0,67,0.00,,,0.00,meteohub,2013-01-18 18:10:00,
2013-01-18 12:15:00,40.6,30.6,29.79,NNE,24,0.0,10.0,67,0.00,,,0.00,meteohub,2013-01-18 18:15:00,
2013-01-18 12:20:00,41.2,31.5,29.79,NNE,29,1.0,10.0,68,0.00,,,0.00,meteohub,2013-01-18 18:20:00,
2013-01-18 12:25:00,41.5,31.8,29.78,NNW,329,1.0,10.0,68,0.00,,,0.00,meteohub,2013-01-18 18:25:00,
2013-01-18 12:30:00,41.7,31.6,29.78,West,265,5.0,10.0,67,0.00,,,0.00,meteohub,2013-01-18 18:30:00,
2013-01-18 12:35:00,41.7,31.6,29.78,NW,317,0.0,10.0,67,0.00,,,0.00,meteohub,2013-01-18 18:35:00,
2013-01-18 12:41:00,41.2,31.1,29.78,West,261,0.0,11.0,67,0.00,,,0.00,meteohub,2013-01-18 18:41:00,
2013-01-18 12:46:00,41.0,31.3,29.78,West,261,0.0,11.0,68,0.00,,,0.00,meteohub,2013-01-18 18:46:00,
2013-01-18 12:51:00,41.2,31.5,29.78,NW,321,1.0,11.0,68,0.00,,,0.00,meteohub,2013-01-18 18:51:00,
2013-01-18 12:56:00,41.5,31.8,29.78,NW,319,0.0,7.0,68,0.00,,,0.00,meteohub,2013-01-18 18:56:00,
2013-01-18 13:01:00,41.5,31.8,29.78,West,264,0.0,7.0,68,0.00,,,0.00,meteohub,2013-01-18 19:01:00,
2013-01-18 13:06:00,41.5,31.8,29.78,NNW,330,0.0,7.0,68,0.00,,,0.00,meteohub,2013-01-18 19:06:00,
2013-01-18 13:11:00,41.5,31.5,29.77,WNW,299,1.0,6.0,67,0.00,,,0.00,meteohub,2013-01-18 19:11:00,
2013-01-18 13:16:00,41.7,31.6,29.77,NW,317,0.0,6.0,67,0.00,,,0.00,meteohub,2013-01-18 19:16:00,
2013-01-18 13:21:00,41.7,32.0,29.77,NW,310,0.0,7.0,68,0.00,,,0.00,meteohub,2013-01-18 19:21:00,
2013-01-18 13:27:00,42.4,32.2,29.77,NNW,334,0.0,8.0,67,0.00,,,0.00,meteohub,2013-01-18 19:27:00,
2013-01-18 13:32:00,42.3,32.2,29.77,NNW,348,0.0,8.0,67,0.00,,,0.00,meteohub,2013-01-18 19:32:00,
2013-01-18 13:37:00,42.3,32.2,29.77,NNW,344,2.0,7.0,67,0.00,,,0.00,meteohub,2013-01-18 19:37:00,
2013-01-18 13:42:00,42.4,32.2,29.77,NNW,344,0.0,9.0,67,0.00,,,0.00,meteohub,2013-01-18 19:42:00,
2013-01-18 13:47:00,42.3,32.2,29.77,WNW,302,0.0,9.0,67,0.00,,,0.00,meteohub,2013-01-18 19:47:00,
2013-01-18 13:52:00,41.9,31.8,29.77,North,355,1.0,9.0,67,0.00,,,0.00,meteohub,2013-01-18 19:52:00,
2013-01-18 13:57:00,41.7,32.0,29.76,NNW,336,0.0,6.0,68,0.00,,,0.00,meteohub,2013-01-18 19:57:00,
2013-01-18 14:02:00,41.7,32.0,29.76,West,271,2.0,11.0,68,0.00,,,0.00,meteohub,2013-01-18 20:02:00,
2013-01-18 14:07:00,41.7,32.0,29.76,NW,325,0.0,11.0,68,0.00,,,0.00,meteohub,2013-01-18 20:07:00,
2013-01-18 14:12:00,41.9,32.2,29.76,NNW,331,0.0,11.0,68,0.00,,,0.00,meteohub,2013-01-18 20:12:00,
2013-01-18 14:17:00,42.1,32.4,29.77,NNW,347,0.0,3.0,68,0.00,,,0.00,meteohub,2013-01-18 20:17:00,
2013-01-18 14:22:00,42.3,32.2,29.77,North,355,0.0,3.0,67,0.00,,,0.00,meteohub,2013-01-18 20:22:00,
2013-01-18 14:27:00,42.1,31.1,29.77,NE,51,2.0,12.0,65,0.00,,,0.00,meteohub,2013-01-18 20:27:00,
2013-01-18 14:32:00,42.1,30.7,29.77,NE,36,0.0,12.0,64,0.00,,,0.00,meteohub,2013-01-18 20:32:00,
2013-01-18 14:37:00,41.9,30.6,29.78,NNE,15,4.0,12.0,64,0.00,,,0.00,meteohub,2013-01-18 20:37:00,
2013-01-18 14:42:00,41.5,30.2,29.77,NE,39,0.0,10.0,64,0.00,,,0.00,meteohub,2013-01-18 20:42:00,
2013-01-18 14:47:00,41.4,30.6,29.77,NE,40,0.0,10.0,65,0.00,,,0.00,meteohub,2013-01-18 20:47:00,
2013-01-18 14:52:00,41.4,30.6,29.75,West,276,4.0,7.0,65,0.00,,,0.00,meteohub,2013-01-18 20:52:00,
2013-01-18 14:57:00,41.4,30.6,29.76,North,5,0.0,7.0,65,0.00,,,0.00,meteohub,2013-01-18 20:57:00,
2013-01-18 15:02:00,41.4,30.6,29.77,NE,45,3.0,7.0,65,0.00,,,0.00,meteohub,2013-01-18 21:02:00,
2013-01-18 15:07:00,41.2,30.4,29.77,NE,36,0.0,7.0,65,0.00,,,0.00,meteohub,2013-01-18 21:07:00,
2013-01-18 15:13:00,41.2,30.4,29.77,North,355,3.0,7.0,65,0.00,,,0.00,meteohub,2013-01-18 21:13:00,
2013-01-18 15:18:00,40.8,30.4,29.77,NE,46,3.0,7.0,66,0.00,,,0.00,meteohub,2013-01-18 21:18:00,
2013-01-18 15:23:00,41.0,30.6,29.78,ENE,71,0.0,10.0,66,0.00,,,0.00,meteohub,2013-01-18 21:23:00,
2013-01-18 15:28:00,40.8,30.4,29.77,NE,43,2.0,10.0,66,0.00,,,0.00,meteohub,2013-01-18 21:28:00,
2013-01-18 15:33:00,40.5,30.0,29.77,NNE,25,0.0,10.0,66,0.00,,,0.00,meteohub,2013-01-18 21:33:00,
2013-01-18 15:38:00,40.5,30.4,29.77,NE,56,2.0,7.0,67,0.00,,,0.00,meteohub,2013-01-18 21:38:00,
2013-01-18 15:43:00,40.3,30.2,29.77,NE,46,1.0,7.0,67,0.00,,,0.00,meteohub,2013-01-18 21:43:00,
2013-01-18 15:48:00,39.9,30.2,29.78,NE,38,0.0,4.0,68,0.00,,,0.00,meteohub,2013-01-18 21:48:00,
2013-01-18 15:53:00,39.7,30.0,29.78,NNE,13,2.0,5.0,68,0.00,,,0.00,meteohub,2013-01-18 21:53:00,
2013-01-18 15:58:00,39.7,30.0,29.78,NNW,344,4.0,5.0,68,0.00,,,0.00,meteohub,2013-01-18 21:58:00,
2013-01-18 16:03:00,39.6,30.2,29.78,NNW,345,0.0,5.0,69,0.00,,,0.00,meteohub,2013-01-18 22:03:00,
2013-01-18 16:09:00,39.2,29.8,29.78,NE,45,0.0,5.0,69,0.00,,,0.00,meteohub,2013-01-18 22:09:00,
2013-01-18 16:14:00,39.0,30.0,29.78,NNE,26,1.0,6.0,70,0.00,,,0.00,meteohub,2013-01-18 22:14:00,
2013-01-18 16:19:00,38.8,29.8,29.78,West,276,2.0,6.0,70,0.00,,,0.00,meteohub,2013-01-18 22:19:00,
2013-01-18 16:24:00,38.8,29.8,29.78,NNE,33,2.0,6.0,70,0.00,,,0.00,meteohub,2013-01-18 22:24:00,
2013-01-18 16:29:00,38.7,30.0,29.78,NNE,13,0.0,5.0,71,0.00,,,0.00,meteohub,2013-01-18 22:29:00,
2013-01-18 16:34:00,38.7,30.0,29.78,NE,40,3.0,5.0,71,0.00,,,0.00,meteohub,2013-01-18 22:34:00,
2013-01-18 16:39:00,38.5,29.8,29.79,NNE,30,0.0,5.0,71,0.00,,,0.00,meteohub,2013-01-18 22:39:00,
2013-01-18 16:44:00,38.5,30.2,29.79,NE,36,2.0,4.0,72,0.00,,,0.00,meteohub,2013-01-18 22:44:00,
2013-01-18 16:49:00,38.1,29.8,29.79,NE,36,0.0,6.0,72,0.00,,,0.00,meteohub,2013-01-18 22:49:00,
2013-01-18 16:54:00,37.9,29.7,29.79,NNW,340,0.0,6.0,72,0.00,,,0.00,meteohub,2013-01-18 22:54:00,
2013-01-18 16:59:00,37.8,29.5,29.79,NNE,22,0.0,4.0,72,0.00,,,0.00,meteohub,2013-01-18 22:59:00,
2013-01-18 17:04:00,37.6,29.7,29.79,NNE,21,0.0,3.0,73,0.00,,,0.00,meteohub,2013-01-18 23:04:00,
2013-01-18 17:10:00,37.2,29.3,29.79,NE,34,0.0,3.0,73,0.00,,,0.00,meteohub,2013-01-18 23:10:00,
2013-01-18 17:15:00,37.0,29.5,29.79,NE,36,0.0,4.0,74,0.00,,,0.00,meteohub,2013-01-18 23:15:00,
2013-01-18 17:20:00,36.9,29.3,29.79,NE,36,0.0,4.0,74,0.00,,,0.00,meteohub,2013-01-18 23:20:00,
2013-01-18 17:25:00,36.7,29.5,29.79,NE,35,0.0,2.0,75,0.00,,,0.00,meteohub,2013-01-18 23:25:00,
2013-01-18 17:30:00,36.5,29.3,29.79,NE,42,0.0,3.0,75,0.00,,,0.00,meteohub,2013-01-18 23:30:00,
2013-01-18 17:35:00,36.5,29.7,29.80,NNE,32,0.0,5.0,76,0.00,,,0.00,meteohub,2013-01-18 23:35:00,
2013-01-18 17:40:00,36.1,29.3,29.80,NNE,30,0.0,5.0,76,0.00,,,0.00,meteohub,2013-01-18 23:40:00,
2013-01-18 17:45:00,36.0,29.1,29.80,NNE,30,0.0,4.0,76,0.00,,,0.00,meteohub,2013-01-18 23:45:00,
2013-01-18 17:50:00,35.8,28.9,29.80,NE,44,0.0,3.0,76,0.00,,,0.00,meteohub,2013-01-18 23:50:00,
2013-01-18 17:56:00,35.6,29.1,29.80,NE,40,0.0,5.0,77,0.00,,,0.00,meteohub,2013-01-18 23:56:00,
2013-01-18 18:01:00,35.2,28.8,29.81,NE,40,0.0,5.0,77,0.00,,,0.00,meteohub,2013-01-19 00:01:00,
2013-01-18 18:06:00,35.2,29.1,29.81,NE,40,0.0,3.0,78,0.00,,,0.00,meteohub,2013-01-19 00:06:00,
2013-01-18 18:11:00,35.1,28.9,29.81,NE,40,0.0,3.0,78,0.00,,,0.00,meteohub,2013-01-19 00:11:00,
2013-01-18 18:16:00,35.1,28.9,29.81,NE,36,0.0,3.0,78,0.00,,,0.00,meteohub,2013-01-19 00:16:00,
2013-01-18 18:21:00,34.7,28.6,29.81,NE,36,0.0,3.0,78,0.00,,,0.00,meteohub,2013-01-19 00:21:00,
2013-01-18 18:26:00,34.3,28.6,29.81,NE,36,0.0,3.0,79,0.00,,,0.00,meteohub,2013-01-19 00:26:00,
2013-01-18 18:31:00,34.3,28.6,29.81,NE,36,0.0,3.0,79,0.00,,,0.00,meteohub,2013-01-19 00:31:00,
2013-01-18 18:36:00,34.3,28.6,29.82,NE,36,0.0,1.0,79,0.00,,,0.00,meteohub,2013-01-19 00:36:00,
2013-01-18 18:42:00,34.0,28.4,29.82,NE,36,0.0,2.0,80,0.00,,,0.00,meteohub,2013-01-19 00:42:00,
2013-01-18 18:47:00,34.0,28.4,29.82,NNE,31,0.0,2.0,80,0.00,,,0.00,meteohub,2013-01-19 00:47:00,
2013-01-18 18:52:00,33.6,28.0,29.82,NNE,30,0.0,2.0,80,0.00,,,0.00,meteohub,2013-01-19 00:52:00,
2013-01-18 18:57:00,33.4,28.2,29.82,NNE,31,0.0,0.0,81,0.00,,,0.00,meteohub,2013-01-19 00:57:00,
2013-01-18 19:02:00,33.4,28.2,29.83,NNE,31,0.0,0.0,81,0.00,,,0.00,meteohub,2013-01-19 01:02:00,
2013-01-18 19:07:00,33.4,28.2,29.82,NNE,30,0.0,0.0,81,0.00,,,0.00,meteohub,2013-01-19 01:07:00,
2013-01-18 19:12:00,33.4,28.2,29.82,NNE,31,0.0,0.0,81,0.00,,,0.00,meteohub,2013-01-19 01:12:00,
2013-01-18 19:17:00,33.4,28.2,29.82,NNE,30,0.0,0.0,81,0.00,,,0.00,meteohub,2013-01-19 01:17:00,
2013-01-18 19:22:00,33.4,28.2,29.82,NNE,29,0.0,2.0,81,0.00,,,0.00,meteohub,2013-01-19 01:22:00,
2013-01-18 19:28:00,33.3,28.0,29.82,NNE,29,0.0,2.0,81,0.00,,,0.00,meteohub,2013-01-19 01:28:00,
2013-01-18 19:33:00,33.3,28.4,29.82,NNE,29,0.0,2.0,82,0.00,,,0.00,meteohub,2013-01-19 01:33:00,
2013-01-18 19:38:00,33.1,28.2,29.83,NNE,27,0.0,1.0,82,0.00,,,0.00,meteohub,2013-01-19 01:38:00,
2013-01-18 19:43:00,33.3,28.4,29.82,NNE,26,0.0,3.0,82,0.00,,,0.00,meteohub,2013-01-19 01:43:00,
2013-01-18 19:48:00,33.4,28.6,29.82,NNE,26,0.0,3.0,82,0.00,,,0.00,meteohub,2013-01-19 01:48:00,
2013-01-18 19:53:00,33.3,28.4,29.83,North,5,1.0,3.0,82,0.00,,,0.00,meteohub,2013-01-19 01:53:00,
2013-01-18 19:58:00,33.3,28.4,29.83,North,5,0.0,3.0,82,0.00,,,0.00,meteohub,2013-01-19 01:58:00,
2013-01-18 20:04:00,33.3,28.4,29.83,NNE,31,0.0,3.0,82,0.00,,,0.00,meteohub,2013-01-19 02:04:00,
2013-01-18 20:09:00,33.1,28.2,29.82,NNE,33,0.0,3.0,82,0.00,,,0.00,meteohub,2013-01-19 02:09:00,
2013-01-18 20:14:00,32.9,28.0,29.83,NNE,32,0.0,4.0,82,0.00,,,0.00,meteohub,2013-01-19 02:14:00,
2013-01-18 20:19:00,32.7,28.2,29.83,NNE,32,0.0,4.0,83,0.00,,,0.00,meteohub,2013-01-19 02:19:00,
2013-01-18 20:24:00,32.7,27.9,29.82,NNE,32,0.0,4.0,82,0.00,,,0.00,meteohub,2013-01-19 02:24:00,
2013-01-18 20:29:00,32.5,28.0,29.82,NNE,32,0.0,2.0,83,0.00,,,0.00,meteohub,2013-01-19 02:29:00,
2013-01-18 20:34:00,32.5,28.0,29.83,NNE,30,0.0,2.0,83,0.00,,,0.00,meteohub,2013-01-19 02:34:00,
2013-01-18 20:40:00,32.4,27.9,29.83,NNE,30,0.0,2.0,83,0.00,,,0.00,meteohub,2013-01-19 02:40:00,
2013-01-18 20:45:00,32.2,27.7,29.83,NNE,30,0.0,1.0,83,0.00,,,0.00,meteohub,2013-01-19 02:45:00,
2013-01-18 20:50:00,32.4,27.9,29.83,NNE,30,0.0,1.0,83,0.00,,,0.00,meteohub,2013-01-19 02:50:00,
2013-01-18 20:55:00,32.4,28.0,29.83,NNE,26,0.0,1.0,84,0.00,,,0.00,meteohub,2013-01-19 02:55:00,
2013-01-18 21:00:00,32.2,27.9,29.83,NNE,25,0.0,2.0,84,0.00,,,0.00,meteohub,2013-01-19 03:00:00,
2013-01-18 21:06:00,31.8,27.3,29.83,NNE,26,0.0,2.0,83,0.00,,,0.00,meteohub,2013-01-19 03:06:00,
2013-01-18 21:11:00,31.6,27.3,29.82,NNE,25,0.0,2.0,84,0.00,,,0.00,meteohub,2013-01-19 03:11:00,
2013-01-18 21:16:00,31.8,27.5,29.81,NNE,24,0.0,2.0,84,0.00,,,0.00,meteohub,2013-01-19 03:16:00,
2013-01-18 21:21:00,32.0,27.7,29.82,NNE,24,0.0,2.0,84,0.00,,,0.00,meteohub,2013-01-19 03:21:00,
2013-01-18 21:26:00,32.0,27.7,29.81,NNE,24,0.0,2.0,84,0.00,,,0.00,meteohub,2013-01-19 03:26:00,
2013-01-18 21:31:00,32.0,27.7,29.81,NNE,25,0.0,0.0,84,0.00,,,0.00,meteohub,2013-01-19 03:31:00,
2013-01-18 21:37:00,32.0,27.7,29.82,NNE,24,0.0,0.0,84,0.00,,,0.00,meteohub,2013-01-19 03:37:00,
2013-01-18 21:42:00,31.8,27.5,29.82,NNE,24,0.0,0.0,84,0.00,,,0.00,meteohub,2013-01-19 03:42:00,
2013-01-18 21:47:00,31.8,27.5,29.82,NNE,22,0.0,0.0,84,0.00,,,0.00,meteohub,2013-01-19 03:47:00,
2013-01-18 21:52:00,31.8,27.5,29.82,NNE,22,0.0,0.0,84,0.00,,,0.00,meteohub,2013-01-19 03:52:00,
2013-01-18 21:57:00,31.8,27.9,29.82,NNE,22,0.0,0.0,85,0.00,,,0.00,meteohub,2013-01-19 03:57:00,
2013-01-18 22:02:00,31.8,27.9,29.81,NNE,22,0.0,0.0,85,0.00,,,0.00,meteohub,2013-01-19 04:02:00,
2013-01-18 22:07:00,31.8,27.9,29.81,NNE,19,0.0,0.0,85,0.00,,,0.00,meteohub,2013-01-19 04:07:00,
2013-01-18 22:12:00,31.6,27.7,29.81,NNE,20,0.0,0.0,85,0.00,,,0.00,meteohub,2013-01-19 04:12:00,
2013-01-18 22:17:00,31.6,27.7,29.81,NNE,20,0.0,0.0,85,0.00,,,0.00,meteohub,2013-01-19 04:17:00,
2013-01-18 22:22:00,31.5,27.5,29.81,NNE,19,0.0,0.0,85,0.00,,,0.00,meteohub,2013-01-19 04:22:00,
2013-01-18 22:28:00,31.3,27.3,29.81,NNE,20,0.0,0.0,85,0.00,,,0.00,meteohub,2013-01-19 04:28:00,
2013-01-18 22:33:00,31.1,27.1,29.81,NNE,20,0.0,0.0,85,0.00,,,0.00,meteohub,2013-01-19 04:33:00,
2013-01-18 22:38:00,30.9,27.0,29.80,NNE,20,0.0,0.0,85,0.00,,,0.00,meteohub,2013-01-19 04:38:00,
2013-01-18 22:43:00,30.7,26.8,29.80,NNE,20,0.0,0.0,85,0.00,,,0.00,meteohub,2013-01-19 04:43:00,
2013-01-18 22:49:00,30.4,26.4,29.80,NNE,20,0.0,0.0,85,0.00,,,0.00,meteohub,2013-01-19 04:49:00,
2013-01-18 22:54:00,30.6,27.0,29.81,NNE,20,0.0,0.0,86,0.00,,,0.00,meteohub,2013-01-19 04:54:00,
2013-01-18 22:59:00,29.8,25.9,29.81,NNE,20,0.0,0.0,85,0.00,,,0.00,meteohub,2013-01-19 04:59:00,
2013-01-18 23:00:00,29.7,25.7,29.81,NNE,20,0.0,0.0,85,0.00,,,0.00,meteohub,2013-01-19 05:00:00,
2013-01-18 23:03:00,29.7,25.7,29.81,NNE,19,0.0,0.0,85,0.00,,,0.00,meteohub,2013-01-19 05:03:00,
2013-01-18 23:08:00,29.3,25.7,29.81,NNE,20,0.0,0.0,86,0.00,,,0.00,meteohub,2013-01-19 05:08:00,
2013-01-18 23:11:00,29.1,25.5,29.81,NNE,20,0.0,0.0,86,0.00,,,0.00,meteohub,2013-01-19 05:11:00,
2013-01-18 23:16:00,28.8,25.2,29.81,NNE,19,0.0,0.0,86,0.00,,,0.00,meteohub,2013-01-19 05:16:00,
2013-01-18 23:21:00,28.2,24.6,29.81,NNE,20,0.0,0.0,86,0.00,,,0.00,meteohub,2013-01-19 05:21:00,
2013-01-18 23:26:00,28.4,25.0,29.81,NNE,20,0.0,0.0,87,0.00,,,0.00,meteohub,2013-01-19 05:26:00,
2013-01-18 23:31:00,28.2,24.8,29.82,NNE,20,0.0,0.0,87,0.00,,,0.00,meteohub,2013-01-19 05:31:00,
2013-01-18 23:37:00,28.0,24.6,29.82,NNE,19,0.0,0.0,87,0.00,,,0.00,meteohub,2013-01-19 05:37:00,
2013-01-18 23:42:00,27.9,24.4,29.82,NNE,20,0.0,0.0,87,0.00,,,0.00,meteohub,2013-01-19 05:42:00,
2013-01-18 23:47:00,27.9,24.8,29.82,NNE,20,0.0,0.0,88,0.00,,,0.00,meteohub,2013-01-19 05:47:00,
2013-01-18 23:52:00,28.0,25.0,29.82,NNE,19,0.0,0.0,88,0.00,,,0.00,meteohub,2013-01-19 05:52:00,
2013-01-18 23:57:00,27.9,24.8,29.83,NNE,19,0.0,0.0,88,0.00,,,0.00,meteohub,2013-01-19 05:57:00,